Hourly Weather Roundup
Issued by NWS Central Illinois

Home | Current Version | Previous Version | Text Only | Print | Product List | Glossary On
Versions: 1 2 3 4 5 6 7 8 9 10 11 12 13 14 15 16 17 18 19 20 21 22 23 24 25 26 27 28 29 30 31 32 33 34 35 36 37 38 39 40 41 42 43 44 45 46 47 48 49 50
000
NZUS43 KILX 041810
HWRILX

AREA WEATHER ROUNDUP
NATIONAL WEATHER SERVICE, LINCOLN IL
100 PM CDT FRI SEP 04 2015


CITY           SKY/WX    TMP DP  RH WIND       PRES   REMARKS
BLOOMINGTON    MOSUNNY   92  69  46 SW8       30.04F HX  96
6HR MIN TEMP:  72; 6HR MAX TEMP:  92;

CHAMPAIGN      PTSUNNY   91  68  46 SW8       30.03F HX  95
6HR MIN TEMP:  68; 6HR MAX TEMP:  92;

DANVILLE       MOSUNNY   91  71  51 W9        30.01S HX  96
6HR MIN TEMP:  66; 6HR MAX TEMP:  91;

DECATUR        MOSUNNY   93  67  42 SW8       30.02F HX  96
6HR MIN TEMP:  71; 6HR MAX TEMP:  93;

EFFINGHAM      PTSUNNY   91  62  37 S7        30.04F HX  92
FLORA          MOSUNNY   92  65  41 W5        30.03F HX  94
6HR MIN TEMP:  66; 6HR MAX TEMP:  92;

GALESBURG      MOSUNNY   88  71  57 CALM      30.01F HX  93
JACKSONVILLE   PTSUNNY   93  68  44 SW7       30.02S HX  98
6HR MIN TEMP:  73; 6HR MAX TEMP:  94;

LACON          MOSUNNY   89  69  51 CALM      30.00F HX  94
6HR MIN TEMP:  68; 6HR MAX TEMP:  89;

LAWRENCEVILLE  SUNNY     93  67  42 SW7       30.03F HX  96
6HR MIN TEMP:  68; 6HR MAX TEMP:  93;

LITCHFIELD     FAIR      90  65  44 SW5       30.03F HX  92
$$


CITY           SKY/WX    TMP DP  RH WIND       PRES   REMARKS
LINCOLN        MOSUNNY   95  67  39 S3        29.99F HX  98
6HR MIN TEMP:  68; 6HR MAX TEMP:  95;

MACOMB         SUNNY     91  67  44 W7        30.03F HX  94
MATTOON        MOSUNNY   90  65  43 S6        30.02F HX  92
6HR MIN TEMP:  73; 6HR MAX TEMP:  91;

MT CARMEL AP   MOSUNNY   91  64  40 SW7       30.03F HX  93
OLNEY-NOBLE AP SUNNY     90  68  48 S6        30.03F HX  93
PARIS          SUNNY     91  68  46 SW6G16    30.03F HX  95
6HR MIN TEMP:  69; 6HR MAX TEMP:  92;

PEORIA         SUNNY     93  68  43 S8        30.01F HX  97
6HR MIN TEMP:  73; 6HR MAX TEMP:  94;

PONTIAC        MOSUNNY   91  72  54 SW3       30.02F HX  98
RANTOUL        NOT AVBL
ROBINSON       SUNNY     91  67  44 SW6       30.04F HX  94
6HR MIN TEMP:  66; 6HR MAX TEMP:  91;

SPRINGFIELD    MOSUNNY   93  67  42 SW6       30.01F HX  96
6HR MIN TEMP:  70; 6HR MAX TEMP:  94;

TAYLORVILLE    SUNNY     91  66  43 S6        30.02F HX  94
$$

...REGIONAL REPORTS...


CITY           SKY/WX    TMP DP  RH WIND       PRES   REMARKS
CHICAGO O`HARE MOSUNNY   82  68  62 VRB3      30.02F HX  85
KANKAKEE       SUNNY     89  73  59 CALM      30.02F HX  96
MOLINE         PTSUNNY   91  70  49 CALM      29.99F HX  96
MOUNT STERLING MOSUNNY   89  69  50 SW6       30.01F HX  93
MOUNT VERNON   SUNNY     93  68  43 S6        30.04F HX  97
PITTSFIELD     SUNNY     92  67  44 SW3       30.03F HX  95
QUINCY         SUNNY     90  66  45 S6        30.01F HX  92
ROCKFORD       PTSUNNY   84  71  65 VRB3      30.03F HX  89
$$


CITY           SKY/WX    TMP DP  RH WIND       PRES   REMARKS
BURLINGTON     MOSUNNY   90  69  50 S6        30.00F HX  94
CEDAR RAPIDS   SUNNY     87  73  62 S12       29.98F HX  94
DES MOINES     PTSUNNY   87  69  54 SW12      29.95F HX  91
KIRKSVILLE     SUNNY     91  66  43 SW6       30.02F HX  93
OTTUMWA        MOSUNNY   89  72  56 SW10      29.97F HX  96
ST LOUIS       MOSUNNY   93  69  45 W9        30.03F HX  98
$$


CITY           SKY/WX    TMP DP  RH WIND       PRES   REMARKS
TERRE HAUTE    MOSUNNY   90  68  48 SW6       30.03F HX  94
EVANSVILLE     MOSUNNY   90  66  45 VRB7      30.04F HX  92
INDIANAPOLIS   PTSUNNY   89  65  44 S9        30.03F HX  91
LAFAYETTE      MOSUNNY   92  66  42 W9        30.00F HX  94
MADISON        PTSUNNY   79  68  69 E5        30.03F HX  81
MILWAUKEE      MOSUNNY   76  66  71 VRB7      30.03F
$$





USA.gov is the U.S. government's official web portal to all federal, state and local government web resources and services.